Year,Month,Day,Hour,Minute,Value (Times are PST for temperature in C)
2015,09,14,00,00,8.30
2015,09,14,00,01,8.30
2015,09,14,00,02,8.30
2015,09,14,00,03,8.30
2015,09,14,00,04,8.30
2015,09,14,00,05,8.30
2015,09,14,00,06,8.20
2015,09,14,00,07,8.20
2015,09,14,00,08,8.20
2015,09,14,00,09,8.10
2015,09,14,00,10,8.10
2015,09,14,00,11,8.10
2015,09,14,00,12,8.10
2015,09,14,00,13,8.20
2015,09,14,00,14,8.20
2015,09,14,00,15,8.30
2015,09,14,00,16,8.30
2015,09,14,00,17,8.30
2015,09,14,00,18,8.30
2015,09,14,00,19,8.30
2015,09,14,00,20,8.20
2015,09,14,00,21,8.20
2015,09,14,00,22,8.10
2015,09,14,00,23,8.00
2015,09,14,00,24,8.00
2015,09,14,00,25,8.00
2015,09,14,00,26,8.00
2015,09,14,00,27,8.00
2015,09,14,00,28,8.00
2015,09,14,00,29,8.00
2015,09,14,00,30,7.90
2015,09,14,00,31,7.90
2015,09,14,00,32,7.90
2015,09,14,00,33,7.90
2015,09,14,00,34,7.90
2015,09,14,00,35,7.90
2015,09,14,00,36,7.90
2015,09,14,00,37,7.80
2015,09,14,00,38,7.80
2015,09,14,00,39,7.80
2015,09,14,00,40,7.80
2015,09,14,00,41,7.70
2015,09,14,00,42,7.70
2015,09,14,00,43,7.70
2015,09,14,00,44,7.60
2015,09,14,00,45,7.60
2015,09,14,00,46,7.70
2015,09,14,00,47,7.70
2015,09,14,00,48,7.80
2015,09,14,00,49,7.80
2015,09,14,00,50,7.90
2015,09,14,00,51,7.90
2015,09,14,00,52,7.90
2015,09,14,00,53,7.90
2015,09,14,00,54,7.90
2015,09,14,00,55,7.80
2015,09,14,00,56,7.80
2015,09,14,00,57,7.70
2015,09,14,00,58,7.60
2015,09,14,00,59,7.60
2015,09,14,01,00,7.60
2015,09,14,01,01,7.60
2015,09,14,01,02,7.50
2015,09,14,01,03,7.50
2015,09,14,01,04,7.50
2015,09,14,01,05,7.50
2015,09,14,01,06,7.50
2015,09,14,01,07,7.40
2015,09,14,01,08,7.40
2015,09,14,01,09,7.40
2015,09,14,01,10,7.40
2015,09,14,01,11,7.40
2015,09,14,01,12,7.40
2015,09,14,01,13,7.40
2015,09,14,01,14,7.40
2015,09,14,01,15,7.40
2015,09,14,01,16,7.40
2015,09,14,01,17,7.40
2015,09,14,01,18,7.30
2015,09,14,01,19,7.30
2015,09,14,01,20,7.30
2015,09,14,01,21,7.30
2015,09,14,01,22,7.30
2015,09,14,01,23,7.30
2015,09,14,01,24,7.30
2015,09,14,01,25,7.20
2015,09,14,01,26,7.20
2015,09,14,01,27,7.20
2015,09,14,01,28,7.20
2015,09,14,01,29,7.20
2015,09,14,01,30,7.20
2015,09,14,01,31,7.20
2015,09,14,01,32,7.20
2015,09,14,01,33,7.10
2015,09,14,01,34,7.10
2015,09,14,01,35,7.10
2015,09,14,01,36,7.10
2015,09,14,01,37,7.20
2015,09,14,01,38,7.20
2015,09,14,01,39,7.20
2015,09,14,01,40,7.30
2015,09,14,01,41,7.30
2015,09,14,01,42,7.30
2015,09,14,01,43,7.30
2015,09,14,01,44,7.30
2015,09,14,01,45,7.20
2015,09,14,01,46,7.20
2015,09,14,01,47,7.10
2015,09,14,01,48,7.10
2015,09,14,01,49,7.10
2015,09,14,01,50,7.10
2015,09,14,01,51,7.10
2015,09,14,01,52,7.10
2015,09,14,01,53,7.10
2015,09,14,01,54,7.10
2015,09,14,01,55,7.20
2015,09,14,01,56,7.20
2015,09,14,01,57,7.30
2015,09,14,01,58,7.30
2015,09,14,01,59,7.30
2015,09,14,02,00,7.40
2015,09,14,02,01,7.40
2015,09,14,02,02,7.40
2015,09,14,02,03,7.40
2015,09,14,02,04,7.40
2015,09,14,02,05,7.40
2015,09,14,02,06,7.40
2015,09,14,02,07,7.40
2015,09,14,02,08,7.50
2015,09,14,02,09,7.50
2015,09,14,02,10,7.50
2015,09,14,02,11,7.50
2015,09,14,02,12,7.50
2015,09,14,02,13,7.50
2015,09,14,02,14,7.40
2015,09,14,02,15,7.40
2015,09,14,02,16,7.30
2015,09,14,02,17,7.30
2015,09,14,02,18,7.20
2015,09,14,02,19,7.10
2015,09,14,02,20,7.10
2015,09,14,02,21,7.00
2015,09,14,02,22,6.90
2015,09,14,02,23,6.90
2015,09,14,02,24,6.80
2015,09,14,02,25,6.70
2015,09,14,02,26,6.60
2015,09,14,02,27,6.50
2015,09,14,02,28,6.40
2015,09,14,02,29,6.30
2015,09,14,02,30,6.20
2015,09,14,02,31,6.20
2015,09,14,02,32,6.20
2015,09,14,02,33,6.20
2015,09,14,02,34,6.20
2015,09,14,02,35,6.10
2015,09,14,02,36,6.10
2015,09,14,02,37,6.10
2015,09,14,02,38,6.10
2015,09,14,02,39,6.10
2015,09,14,02,40,6.10
2015,09,14,02,41,6.20
2015,09,14,02,42,6.20
2015,09,14,02,43,6.20
2015,09,14,02,44,6.20
2015,09,14,02,45,6.20
2015,09,14,02,46,6.30
2015,09,14,02,47,6.30
2015,09,14,02,48,6.30
2015,09,14,02,49,6.30
2015,09,14,02,50,6.30
2015,09,14,02,51,6.30
2015,09,14,02,52,6.30
2015,09,14,02,53,6.30
2015,09,14,02,54,6.30
2015,09,14,02,55,6.30
2015,09,14,02,56,6.30
2015,09,14,02,57,6.20
2015,09,14,02,58,6.20
2015,09,14,02,59,6.10
2015,09,14,03,00,6.00
2015,09,14,03,01,5.90
2015,09,14,03,02,5.90
2015,09,14,03,03,5.80
2015,09,14,03,04,5.80
2015,09,14,03,05,5.90
2015,09,14,03,06,5.90
2015,09,14,03,07,5.90
2015,09,14,03,08,5.90
2015,09,14,03,09,6.00
2015,09,14,03,10,6.10
2015,09,14,03,11,6.20
2015,09,14,03,12,6.30
2015,09,14,03,13,6.40
2015,09,14,03,14,6.40
2015,09,14,03,15,6.40
2015,09,14,03,16,6.40
2015,09,14,03,17,6.40
2015,09,14,03,18,6.40
2015,09,14,03,19,6.40
2015,09,14,03,20,6.40
2015,09,14,03,21,6.40
2015,09,14,03,22,6.40
2015,09,14,03,23,6.50
2015,09,14,03,24,6.50
2015,09,14,03,25,6.50
2015,09,14,03,26,6.60
2015,09,14,03,27,6.60
2015,09,14,03,28,6.60
2015,09,14,03,29,6.50
2015,09,14,03,30,6.50
2015,09,14,03,31,6.50
2015,09,14,03,32,6.50
2015,09,14,03,33,6.40
2015,09,14,03,34,6.40
2015,09,14,03,35,6.40
2015,09,14,03,36,6.30
2015,09,14,03,37,6.30
2015,09,14,03,38,6.30
2015,09,14,03,39,6.20
2015,09,14,03,40,6.20
2015,09,14,03,41,6.10
2015,09,14,03,42,6.00
2015,09,14,03,43,6.00
2015,09,14,03,44,5.90
2015,09,14,03,45,5.90
2015,09,14,03,46,5.90
2015,09,14,03,47,5.90
2015,09,14,03,48,5.90
2015,09,14,03,49,5.90
2015,09,14,03,50,5.90
2015,09,14,03,51,5.90
2015,09,14,03,52,5.90
2015,09,14,03,53,5.80
2015,09,14,03,54,5.80
2015,09,14,03,55,5.80
2015,09,14,03,56,5.80
2015,09,14,03,57,5.90
2015,09,14,03,58,5.80
2015,09,14,03,59,5.80
2015,09,14,04,00,5.70
2015,09,14,04,01,5.70
2015,09,14,04,02,5.70
2015,09,14,04,03,5.70
2015,09,14,04,04,5.60
2015,09,14,04,05,5.60
2015,09,14,04,06,5.60
2015,09,14,04,07,5.60
2015,09,14,04,08,5.60
2015,09,14,04,09,5.60
2015,09,14,04,10,5.60
2015,09,14,04,11,5.60
2015,09,14,04,12,5.70
2015,09,14,04,13,5.70
2015,09,14,04,14,5.70
2015,09,14,04,15,5.70
2015,09,14,04,16,5.60
2015,09,14,04,17,5.60
2015,09,14,04,18,5.60
2015,09,14,04,19,5.60
2015,09,14,04,20,5.70
2015,09,14,04,21,5.70
2015,09,14,04,22,5.80
2015,09,14,04,23,5.80
2015,09,14,04,24,5.90
2015,09,14,04,25,6.00
2015,09,14,04,26,6.00
2015,09,14,04,27,6.10
2015,09,14,04,28,6.10
2015,09,14,04,29,6.10
2015,09,14,04,30,6.10
2015,09,14,04,31,6.10
2015,09,14,04,32,6.00
2015,09,14,04,33,6.00
2015,09,14,04,34,5.90
2015,09,14,04,35,5.90
2015,09,14,04,36,5.80
2015,09,14,04,37,5.80
2015,09,14,04,38,5.80
2015,09,14,04,39,5.80
2015,09,14,04,40,5.70
2015,09,14,04,41,5.70
2015,09,14,04,42,5.70
2015,09,14,04,43,5.60
2015,09,14,04,44,5.60
2015,09,14,04,45,5.60
2015,09,14,04,46,5.60
2015,09,14,04,47,5.60
2015,09,14,04,48,5.60
2015,09,14,04,49,5.70
2015,09,14,04,50,5.70
2015,09,14,04,51,5.60
2015,09,14,04,52,5.60
2015,09,14,04,53,5.50
2015,09,14,04,54,5.50
2015,09,14,04,55,5.50
2015,09,14,04,56,5.50
2015,09,14,04,57,5.60
2015,09,14,04,58,5.60
2015,09,14,04,59,5.60
2015,09,14,05,00,5.70
2015,09,14,05,01,5.80
2015,09,14,05,02,5.90
2015,09,14,05,03,6.00
2015,09,14,05,04,6.20
2015,09,14,05,05,6.30
2015,09,14,05,06,6.40
2015,09,14,05,07,6.50
2015,09,14,05,08,6.50
2015,09,14,05,09,6.50
2015,09,14,05,10,6.40
2015,09,14,05,11,6.30
2015,09,14,05,12,6.20
2015,09,14,05,13,6.10
2015,09,14,05,14,6.00
2015,09,14,05,15,5.90
2015,09,14,05,16,5.80
2015,09,14,05,17,5.80
2015,09,14,05,18,5.80
2015,09,14,05,19,5.70
2015,09,14,05,20,5.70
2015,09,14,05,21,5.70
2015,09,14,05,22,5.70
2015,09,14,05,23,5.70
2015,09,14,05,24,5.70
2015,09,14,05,25,5.70
2015,09,14,05,26,5.70
2015,09,14,05,27,5.70
2015,09,14,05,28,5.70
2015,09,14,05,29,5.70
2015,09,14,05,30,5.70
2015,09,14,05,31,5.70
2015,09,14,05,32,5.70
2015,09,14,05,33,5.70
2015,09,14,05,34,5.70
2015,09,14,05,35,5.70
2015,09,14,05,36,5.70
2015,09,14,05,37,5.70
2015,09,14,05,38,5.70
2015,09,14,05,39,5.70
2015,09,14,05,40,5.60
2015,09,14,05,41,5.50
2015,09,14,05,42,5.50
2015,09,14,05,43,5.40
2015,09,14,05,44,5.30
2015,09,14,05,45,5.30
2015,09,14,05,46,5.20
2015,09,14,05,47,5.20
2015,09,14,05,48,5.10
2015,09,14,05,49,5.10
2015,09,14,05,50,5.00
2015,09,14,05,51,5.00
2015,09,14,05,52,5.00
2015,09,14,05,53,5.10
2015,09,14,05,54,5.10
2015,09,14,05,55,5.20
2015,09,14,05,56,5.20
2015,09,14,05,57,5.30
2015,09,14,05,58,5.40
2015,09,14,05,59,5.60
2015,09,14,06,00,5.70
2015,09,14,06,01,5.80
2015,09,14,06,02,5.80
2015,09,14,06,03,5.80
2015,09,14,06,04,5.70
2015,09,14,06,05,5.70
2015,09,14,06,06,5.70
2015,09,14,06,07,5.80
2015,09,14,06,08,5.80
2015,09,14,06,09,5.90
2015,09,14,06,10,5.90
2015,09,14,06,11,6.00
2015,09,14,06,12,6.00
2015,09,14,06,13,6.10
2015,09,14,06,14,6.10
2015,09,14,06,15,6.10
2015,09,14,06,16,6.00
2015,09,14,06,17,6.00
2015,09,14,06,18,5.90
2015,09,14,06,19,5.80
2015,09,14,06,20,5.80
2015,09,14,06,21,5.80
2015,09,14,06,22,5.80
2015,09,14,06,23,5.80
2015,09,14,06,24,5.80
2015,09,14,06,25,5.80
2015,09,14,06,26,5.70
2015,09,14,06,27,5.70
2015,09,14,06,28,5.70
2015,09,14,06,29,5.80
2015,09,14,06,30,5.80
2015,09,14,06,31,5.80
2015,09,14,06,32,5.90
2015,09,14,06,33,5.90
2015,09,14,06,34,5.80
2015,09,14,06,35,5.70
2015,09,14,06,36,5.70
2015,09,14,06,37,5.60
2015,09,14,06,38,5.60
2015,09,14,06,39,5.60
2015,09,14,06,40,5.60
2015,09,14,06,41,5.60
2015,09,14,06,42,5.60
2015,09,14,06,43,5.60
2015,09,14,06,44,5.60
2015,09,14,06,45,5.70
2015,09,14,06,46,5.70
2015,09,14,06,47,5.80
2015,09,14,06,48,5.80
2015,09,14,06,49,5.80
2015,09,14,06,50,5.80
2015,09,14,06,51,5.80
2015,09,14,06,52,5.70
2015,09,14,06,53,5.70
2015,09,14,06,54,5.60
2015,09,14,06,55,5.60
2015,09,14,06,56,5.60
2015,09,14,06,57,5.60
2015,09,14,06,58,5.60
2015,09,14,06,59,5.60
2015,09,14,07,00,5.60
2015,09,14,07,01,5.60
2015,09,14,07,02,5.70
2015,09,14,07,03,5.70
2015,09,14,07,04,5.60
2015,09,14,07,05,5.60
2015,09,14,07,06,5.60
2015,09,14,07,07,5.50
2015,09,14,07,08,5.40
2015,09,14,07,09,5.30
2015,09,14,07,10,5.30
2015,09,14,07,11,5.40
2015,09,14,07,12,5.40
2015,09,14,07,13,5.40
2015,09,14,07,14,5.40
2015,09,14,07,15,5.30
2015,09,14,07,16,5.30
2015,09,14,07,17,5.30
2015,09,14,07,18,5.30
2015,09,14,07,19,5.30
2015,09,14,07,20,5.40
2015,09,14,07,21,5.40
2015,09,14,07,22,5.50
2015,09,14,07,23,5.50
2015,09,14,07,24,5.50
2015,09,14,07,25,5.50
2015,09,14,07,26,5.50
2015,09,14,07,27,5.50
2015,09,14,07,28,5.50
2015,09,14,07,29,5.50
2015,09,14,07,30,5.50
2015,09,14,07,31,5.40
2015,09,14,07,32,5.50
2015,09,14,07,33,5.50
2015,09,14,07,34,5.50
2015,09,14,07,35,5.60
2015,09,14,07,36,5.60
2015,09,14,07,37,5.70
2015,09,14,07,38,5.70
2015,09,14,07,39,5.70
2015,09,14,07,40,5.80
2015,09,14,07,41,5.80
2015,09,14,07,42,5.80
2015,09,14,07,43,5.80
2015,09,14,07,44,5.90
2015,09,14,07,45,5.90
2015,09,14,07,46,6.00
2015,09,14,07,47,6.00
2015,09,14,07,48,6.00
2015,09,14,07,49,6.10
2015,09,14,07,50,6.10
2015,09,14,07,51,6.10
2015,09,14,07,52,6.10
2015,09,14,07,53,6.10
2015,09,14,07,54,6.10
2015,09,14,07,55,6.10
2015,09,14,07,56,6.10
2015,09,14,07,57,6.20
2015,09,14,07,58,6.20
2015,09,14,07,59,6.30
2015,09,14,08,00,6.40
2015,09,14,08,01,6.50
2015,09,14,08,02,6.60
2015,09,14,08,03,6.60
2015,09,14,08,04,6.70
2015,09,14,08,05,6.70
2015,09,14,08,06,6.80
2015,09,14,08,07,6.80
2015,09,14,08,08,6.90
2015,09,14,08,09,6.90
2015,09,14,08,10,6.90
2015,09,14,08,11,7.00
2015,09,14,08,12,7.10
2015,09,14,08,13,7.10
2015,09,14,08,14,7.20
2015,09,14,08,15,7.20
2015,09,14,08,16,7.30
2015,09,14,08,17,7.30
2015,09,14,08,18,7.30
2015,09,14,08,19,7.40
2015,09,14,08,20,7.40
2015,09,14,08,21,7.50
2015,09,14,08,22,7.50
2015,09,14,08,23,7.60
2015,09,14,08,24,7.60
2015,09,14,08,25,7.70
2015,09,14,08,26,7.70
2015,09,14,08,27,7.80
2015,09,14,08,28,7.90
2015,09,14,08,29,8.00
2015,09,14,08,30,8.00
2015,09,14,08,31,8.10
2015,09,14,08,32,8.20
2015,09,14,08,33,8.20
2015,09,14,08,34,8.30
2015,09,14,08,35,8.30
2015,09,14,08,36,8.30
2015,09,14,08,37,8.40
2015,09,14,08,38,8.50
2015,09,14,08,39,8.50
2015,09,14,08,40,8.50
2015,09,14,08,41,8.60
2015,09,14,08,42,8.60
2015,09,14,08,43,8.70
2015,09,14,08,44,8.70
2015,09,14,08,45,8.70
2015,09,14,08,46,8.70
2015,09,14,08,47,8.70
2015,09,14,08,48,8.70
2015,09,14,08,49,8.70
2015,09,14,08,50,8.80
2015,09,14,08,51,8.80
2015,09,14,08,52,8.80
2015,09,14,08,53,8.80
2015,09,14,08,54,8.80
2015,09,14,08,55,8.90
2015,09,14,08,56,8.90
2015,09,14,08,57,9.00
2015,09,14,08,58,9.00
2015,09,14,08,59,9.10
2015,09,14,09,00,9.10
2015,09,14,09,01,9.20
2015,09,14,09,02,9.20
2015,09,14,09,03,9.20
2015,09,14,09,04,9.20
2015,09,14,09,05,9.30
2015,09,14,09,06,9.30
2015,09,14,09,07,9.30
2015,09,14,09,08,9.30
2015,09,14,09,09,9.40
2015,09,14,09,10,9.40
2015,09,14,09,11,9.50
2015,09,14,09,12,9.50
2015,09,14,09,13,9.60
2015,09,14,09,14,9.60
2015,09,14,09,15,9.70
2015,09,14,09,16,9.70
2015,09,14,09,17,9.80
2015,09,14,09,18,9.80
2015,09,14,09,19,9.90
2015,09,14,09,20,10.00
2015,09,14,09,21,10.10
2015,09,14,09,22,10.20
2015,09,14,09,23,10.30
2015,09,14,09,24,10.40
2015,09,14,09,25,10.50
2015,09,14,09,26,10.70
2015,09,14,09,27,10.80
2015,09,14,09,28,10.90
2015,09,14,09,29,11.00
2015,09,14,09,30,11.00
2015,09,14,09,31,11.10
2015,09,14,09,32,11.10
2015,09,14,09,33,11.20
2015,09,14,09,34,11.20
2015,09,14,09,35,11.30
2015,09,14,09,36,11.30
2015,09,14,09,37,11.30
2015,09,14,09,38,11.40
2015,09,14,09,39,11.40
2015,09,14,09,40,11.40
2015,09,14,09,41,11.40
2015,09,14,09,42,11.50
2015,09,14,09,43,11.50
2015,09,14,09,44,11.50
2015,09,14,09,45,11.60
2015,09,14,09,46,11.60
2015,09,14,09,47,11.60
2015,09,14,09,48,11.60
2015,09,14,09,49,11.60
2015,09,14,09,50,11.70
2015,09,14,09,51,11.70
2015,09,14,09,52,11.70
2015,09,14,09,53,11.80
2015,09,14,09,54,11.80
2015,09,14,09,55,11.90
2015,09,14,09,56,11.90
2015,09,14,09,57,11.90
2015,09,14,09,58,11.90
2015,09,14,09,59,11.90
2015,09,14,10,00,11.90
2015,09,14,10,01,11.90
2015,09,14,10,02,11.90
2015,09,14,10,03,11.90
2015,09,14,10,04,11.90
2015,09,14,10,05,11.80
2015,09,14,10,06,11.80
2015,09,14,10,07,11.80
2015,09,14,10,08,11.80
2015,09,14,10,09,11.80
2015,09,14,10,10,11.80
2015,09,14,10,11,11.90
2015,09,14,10,12,11.90
2015,09,14,10,13,11.90
2015,09,14,10,14,11.90
2015,09,14,10,15,11.90
2015,09,14,10,16,11.80
2015,09,14,10,17,11.80
2015,09,14,10,18,11.80
2015,09,14,10,19,11.80
2015,09,14,10,20,11.80
2015,09,14,10,21,11.90
2015,09,14,10,22,11.90
2015,09,14,10,23,11.90
2015,09,14,10,24,11.90
2015,09,14,10,25,12.00
2015,09,14,10,26,12.10
2015,09,14,10,27,12.10
2015,09,14,10,28,12.10
2015,09,14,10,29,12.10
2015,09,14,10,30,12.20
2015,09,14,10,31,12.20
2015,09,14,10,32,12.30
2015,09,14,10,33,12.40
2015,09,14,10,34,12.40
2015,09,14,10,35,12.50
2015,09,14,10,36,12.60
2015,09,14,10,37,12.60
2015,09,14,10,38,12.50
2015,09,14,10,39,12.50
2015,09,14,10,40,12.50
2015,09,14,10,41,12.40
2015,09,14,10,42,12.40
2015,09,14,10,43,12.40
2015,09,14,10,44,12.40
2015,09,14,10,45,12.40
2015,09,14,10,46,12.40
2015,09,14,10,47,12.40
2015,09,14,10,48,12.40
2015,09,14,10,49,12.50
2015,09,14,10,50,12.50
2015,09,14,10,51,12.50
2015,09,14,10,52,12.60
2015,09,14,10,53,12.70
2015,09,14,10,54,12.70
2015,09,14,10,55,12.80
2015,09,14,10,56,12.90
2015,09,14,10,57,12.90
2015,09,14,10,58,13.00
2015,09,14,10,59,13.00
2015,09,14,11,00,13.00
2015,09,14,11,01,13.00
2015,09,14,11,02,12.90
2015,09,14,11,03,12.90
2015,09,14,11,04,12.90
2015,09,14,11,05,12.90
2015,09,14,11,06,12.90
2015,09,14,11,07,12.90
2015,09,14,11,08,12.90
2015,09,14,11,09,12.80
2015,09,14,11,10,12.80
2015,09,14,11,11,12.70
2015,09,14,11,12,12.70
2015,09,14,11,13,12.70
2015,09,14,11,14,12.80
2015,09,14,11,15,12.80
2015,09,14,11,16,12.90
2015,09,14,11,17,12.90
2015,09,14,11,18,12.90
2015,09,14,11,19,13.00
2015,09,14,11,20,13.10
2015,09,14,11,21,13.10
2015,09,14,11,22,13.20
2015,09,14,11,23,13.20
2015,09,14,11,24,13.10
2015,09,14,11,25,13.00
2015,09,14,11,26,13.00
2015,09,14,11,27,12.90
2015,09,14,11,28,12.90
2015,09,14,11,29,12.80
2015,09,14,11,30,12.80
2015,09,14,11,31,12.80
2015,09,14,11,32,12.80
2015,09,14,11,33,12.80
2015,09,14,11,34,12.90
2015,09,14,11,35,12.90
2015,09,14,11,36,12.90
2015,09,14,11,37,12.90
2015,09,14,11,38,12.90
2015,09,14,11,39,12.90
2015,09,14,11,40,13.00
2015,09,14,11,41,13.10
2015,09,14,11,42,13.20
2015,09,14,11,43,13.30
2015,09,14,11,44,13.40
2015,09,14,11,45,13.40
2015,09,14,11,46,13.50
2015,09,14,11,47,13.50
2015,09,14,11,48,13.60
2015,09,14,11,49,13.60
2015,09,14,11,50,13.60
2015,09,14,11,51,13.70
2015,09,14,11,52,13.70
2015,09,14,11,53,13.80
2015,09,14,11,54,13.80
2015,09,14,11,55,13.70
2015,09,14,11,56,13.60
2015,09,14,11,57,13.50
2015,09,14,11,58,13.50
2015,09,14,11,59,13.50
2015,09,14,12,00,13.50
2015,09,14,12,01,13.60
2015,09,14,12,02,13.60
2015,09,14,12,03,13.60
2015,09,14,12,04,13.70
2015,09,14,12,05,13.70
2015,09,14,12,06,13.80
2015,09,14,12,07,13.90
2015,09,14,12,08,14.00
2015,09,14,12,09,14.10
2015,09,14,12,10,14.10
2015,09,14,12,11,14.10
2015,09,14,12,12,14.10
2015,09,14,12,13,14.10
2015,09,14,12,14,14.20
2015,09,14,12,15,14.20
2015,09,14,12,16,14.20
2015,09,14,12,17,14.30
2015,09,14,12,18,14.30
2015,09,14,12,19,14.30
2015,09,14,12,20,14.30
2015,09,14,12,21,14.30
2015,09,14,12,22,14.40
2015,09,14,12,23,14.50
2015,09,14,12,24,14.60
2015,09,14,12,25,14.60
2015,09,14,12,26,14.60
2015,09,14,12,27,14.50
2015,09,14,12,28,14.40
2015,09,14,12,29,14.40
2015,09,14,12,30,14.30
2015,09,14,12,31,14.30
2015,09,14,12,32,14.20
2015,09,14,12,33,14.20
2015,09,14,12,34,14.20
2015,09,14,12,35,14.20
2015,09,14,12,36,14.20
2015,09,14,12,37,14.20
2015,09,14,12,38,14.20
2015,09,14,12,39,14.20
2015,09,14,12,40,14.20
2015,09,14,12,41,14.20
2015,09,14,12,42,14.10
2015,09,14,12,43,14.10
2015,09,14,12,44,14.10
2015,09,14,12,45,14.10
2015,09,14,12,46,14.10
2015,09,14,12,47,14.10
2015,09,14,12,48,14.10
2015,09,14,12,49,14.10
2015,09,14,12,50,14.10
2015,09,14,12,51,14.20
2015,09,14,12,52,14.20
2015,09,14,12,53,14.20
2015,09,14,12,54,14.20
2015,09,14,12,55,14.10
2015,09,14,12,56,14.10
2015,09,14,12,57,14.00
2015,09,14,12,58,14.00
2015,09,14,12,59,14.00
2015,09,14,13,00,14.00
2015,09,14,13,01,14.10
2015,09,14,13,02,14.10
2015,09,14,13,03,14.00
2015,09,14,13,04,14.00
2015,09,14,13,05,14.00
2015,09,14,13,06,14.00
2015,09,14,13,07,14.00
2015,09,14,13,08,14.10
2015,09,14,13,09,14.10
2015,09,14,13,10,14.10
2015,09,14,13,11,14.10
2015,09,14,13,12,14.00
2015,09,14,13,13,14.00
2015,09,14,13,14,14.00
2015,09,14,13,15,14.00
2015,09,14,13,16,14.00
2015,09,14,13,17,14.00
2015,09,14,13,18,14.00
2015,09,14,13,19,14.00
2015,09,14,13,20,14.10
2015,09,14,13,21,14.10
2015,09,14,13,22,14.10
2015,09,14,13,23,14.10
2015,09,14,13,24,14.20
2015,09,14,13,25,14.20
2015,09,14,13,26,14.20
2015,09,14,13,27,14.20
2015,09,14,13,28,14.20
2015,09,14,13,29,14.20
2015,09,14,13,30,14.20
2015,09,14,13,31,14.20
2015,09,14,13,32,14.20
2015,09,14,13,33,14.20
2015,09,14,13,34,14.30
2015,09,14,13,35,14.30
2015,09,14,13,36,14.30
2015,09,14,13,37,14.30
2015,09,14,13,38,14.30
2015,09,14,13,39,14.30
2015,09,14,13,40,14.30
2015,09,14,13,41,14.40
2015,09,14,13,42,14.40
2015,09,14,13,43,14.50
2015,09,14,13,44,14.50
2015,09,14,13,45,14.60
2015,09,14,13,46,14.60
2015,09,14,13,47,14.70
2015,09,14,13,48,14.70
2015,09,14,13,49,14.80
2015,09,14,13,50,14.70
2015,09,14,13,51,14.70
2015,09,14,13,52,14.70
2015,09,14,13,53,14.60
2015,09,14,13,54,14.70
2015,09,14,13,55,14.60
2015,09,14,13,56,14.60
2015,09,14,13,57,14.60
2015,09,14,13,58,14.50
2015,09,14,13,59,14.50
2015,09,14,14,00,14.40
2015,09,14,14,01,14.40
2015,09,14,14,02,14.40
2015,09,14,14,03,14.40
2015,09,14,14,04,14.30
2015,09,14,14,05,14.30
2015,09,14,14,06,14.30
2015,09,14,14,07,14.40
2015,09,14,14,08,14.40
2015,09,14,14,09,14.40
2015,09,14,14,10,14.40
2015,09,14,14,11,14.50
2015,09,14,14,12,14.50
2015,09,14,14,13,14.50
2015,09,14,14,14,14.50
2015,09,14,14,15,14.50
2015,09,14,14,16,14.50
2015,09,14,14,17,14.50
2015,09,14,14,18,14.50
2015,09,14,14,19,14.60
2015,09,14,14,20,14.60
2015,09,14,14,21,14.70
2015,09,14,14,22,14.70
2015,09,14,14,23,14.80
2015,09,14,14,24,14.80
2015,09,14,14,25,14.90
2015,09,14,14,26,14.90
2015,09,14,14,27,14.90
2015,09,14,14,28,15.00
2015,09,14,14,29,15.00
2015,09,14,14,30,15.10
2015,09,14,14,31,15.10
2015,09,14,14,32,15.00
2015,09,14,14,33,15.00
2015,09,14,14,34,15.00
2015,09,14,14,35,15.00
2015,09,14,14,36,15.00
2015,09,14,14,37,15.10
2015,09,14,14,38,15.10
2015,09,14,14,39,15.20
2015,09,14,14,40,15.30
2015,09,14,14,41,15.30
2015,09,14,14,42,15.50
2015,09,14,14,43,15.50
2015,09,14,14,44,15.60
2015,09,14,14,45,15.60
2015,09,14,14,46,15.70
2015,09,14,14,47,15.70
2015,09,14,14,48,15.60
2015,09,14,14,49,15.40
2015,09,14,14,50,15.20
2015,09,14,14,51,15.10
2015,09,14,14,52,15.00
2015,09,14,14,53,14.90
2015,09,14,14,54,14.80
2015,09,14,14,55,14.80
2015,09,14,14,56,14.80
2015,09,14,14,57,14.70
2015,09,14,14,58,14.70
2015,09,14,14,59,14.70
2015,09,14,15,00,14.70
2015,09,14,15,01,14.60
2015,09,14,15,02,14.60
2015,09,14,15,03,14.60
2015,09,14,15,04,14.60
2015,09,14,15,05,14.60
2015,09,14,15,06,14.60
2015,09,14,15,07,14.70
2015,09,14,15,08,14.70
2015,09,14,15,09,14.70
2015,09,14,15,10,14.70
2015,09,14,15,11,14.70
2015,09,14,15,12,14.60
2015,09,14,15,13,14.60
2015,09,14,15,14,14.60
2015,09,14,15,15,14.70
2015,09,14,15,16,14.80
2015,09,14,15,17,14.90
2015,09,14,15,18,14.90
2015,09,14,15,19,15.00
2015,09,14,15,20,15.00
2015,09,14,15,21,15.00
2015,09,14,15,22,15.00
2015,09,14,15,23,15.00
2015,09,14,15,24,14.90
2015,09,14,15,25,14.90
2015,09,14,15,26,14.90
2015,09,14,15,27,14.80
2015,09,14,15,28,14.80
2015,09,14,15,29,14.80
2015,09,14,15,30,14.80
2015,09,14,15,31,14.80
2015,09,14,15,32,14.80
2015,09,14,15,33,14.70
2015,09,14,15,34,14.70
2015,09,14,15,35,14.70
2015,09,14,15,36,14.60
2015,09,14,15,37,14.60
2015,09,14,15,38,14.60
2015,09,14,15,39,14.70
2015,09,14,15,40,14.70
2015,09,14,15,41,14.80
2015,09,14,15,42,14.80
2015,09,14,15,43,14.90
2015,09,14,15,44,14.90
2015,09,14,15,45,14.90
2015,09,14,15,46,14.90
2015,09,14,15,47,14.90
2015,09,14,15,48,14.90
2015,09,14,15,49,14.90
2015,09,14,15,50,15.00
2015,09,14,15,51,15.00
2015,09,14,15,52,15.10
2015,09,14,15,53,15.20
2015,09,14,15,54,15.20
2015,09,14,15,55,15.20
2015,09,14,15,56,15.30
2015,09,14,15,57,15.30
2015,09,14,15,58,15.30
2015,09,14,15,59,15.30
2015,09,14,16,00,15.40
2015,09,14,16,01,15.40
2015,09,14,16,02,15.40
2015,09,14,16,03,15.40
2015,09,14,16,04,15.50
2015,09,14,16,05,15.50
2015,09,14,16,06,15.40
2015,09,14,16,07,15.40
2015,09,14,16,08,15.50
2015,09,14,16,09,15.50
2015,09,14,16,10,15.50
2015,09,14,16,11,15.50
2015,09,14,16,12,15.40
2015,09,14,16,13,15.40
2015,09,14,16,14,15.40
2015,09,14,16,15,15.40
2015,09,14,16,16,15.40
2015,09,14,16,17,15.40
2015,09,14,16,18,15.40
2015,09,14,16,19,15.50
2015,09,14,16,20,15.60
2015,09,14,16,21,15.70
2015,09,14,16,22,15.70
2015,09,14,16,23,15.70
2015,09,14,16,24,15.80
2015,09,14,16,25,15.80
2015,09,14,16,26,15.90
2015,09,14,16,27,16.00
2015,09,14,16,28,16.10
2015,09,14,16,29,16.10
2015,09,14,16,30,16.20
2015,09,14,16,31,16.20
2015,09,14,16,32,16.20
2015,09,14,16,33,16.20
2015,09,14,16,34,16.20
2015,09,14,16,35,16.20
2015,09,14,16,36,16.20
2015,09,14,16,37,16.20
2015,09,14,16,38,16.10
2015,09,14,16,39,16.10
2015,09,14,16,40,16.00
2015,09,14,16,41,16.00
2015,09,14,16,42,15.90
2015,09,14,16,43,15.80
2015,09,14,16,44,15.70
2015,09,14,16,45,15.60
2015,09,14,16,46,15.50
2015,09,14,16,47,15.30
2015,09,14,16,48,15.30
2015,09,14,16,49,15.20
2015,09,14,16,50,15.10
2015,09,14,16,51,15.00
2015,09,14,16,52,14.90
2015,09,14,16,53,14.90
2015,09,14,16,54,14.80
2015,09,14,16,55,14.80
2015,09,14,16,56,14.70
2015,09,14,16,57,14.70
2015,09,14,16,58,14.60
2015,09,14,16,59,14.50
2015,09,14,17,00,14.50
2015,09,14,17,01,14.50
2015,09,14,17,02,14.40
2015,09,14,17,03,14.40
2015,09,14,17,04,14.30
2015,09,14,17,05,14.30
2015,09,14,17,06,14.30
2015,09,14,17,07,14.30
2015,09,14,17,08,14.20
2015,09,14,17,09,14.20
2015,09,14,17,10,14.20
2015,09,14,17,11,14.20
2015,09,14,17,12,14.20
2015,09,14,17,13,14.20
2015,09,14,17,14,14.10
2015,09,14,17,15,14.10
2015,09,14,17,16,14.10
2015,09,14,17,17,14.10
2015,09,14,17,18,14.10
2015,09,14,17,19,14.10
2015,09,14,17,20,14.10
2015,09,14,17,21,14.10
2015,09,14,17,22,14.10
2015,09,14,17,23,14.10
2015,09,14,17,24,14.10
2015,09,14,17,25,14.10
2015,09,14,17,26,14.10
2015,09,14,17,27,14.10
2015,09,14,17,28,14.10
2015,09,14,17,29,14.10
2015,09,14,17,30,14.10
2015,09,14,17,31,14.10
2015,09,14,17,32,14.10
2015,09,14,17,33,14.10
2015,09,14,17,34,14.10
2015,09,14,17,35,14.10
2015,09,14,17,36,14.10
2015,09,14,17,37,14.10
2015,09,14,17,38,14.10
2015,09,14,17,39,14.10
2015,09,14,17,40,14.00
2015,09,14,17,41,14.00
2015,09,14,17,42,14.00
2015,09,14,17,43,14.00